Melfa, VA

12:07 AM EDT on July 25, 2017 (GMT -0400)
Accomack County

Weather History for KMFV - May, 2014

Change the Weather History Date:

Wednesday, May 7, 2014

  Actual Average (KWAL) Record (KWAL)
Temperature  
Mean Temperature 57 °F -  
Max Temperature 68 °F 68 °F 90 °F (2000)
Min Temperature 46 °F 51 °F 38 °F (1970)
Degree Days  
Heating Degree Days 8    
Growing Degree Days 7 (Base 50)    
Moisture  
Dew Point 49 °F    
Average Humidity 73    
Maximum Humidity 94    
Minimum Humidity 40    
Precipitation  
Precipitation 0.00 in - - ()
Sea Level Pressure  
Sea Level Pressure 30.16 in    
Wind  
Wind Speed 4 mph (ESE)    
Max Wind Speed 13 mph    
Max Gust Speed 16 mph    
Visibility 9 miles    
Events Thunderstorm    
Averages and records for this station are not official NWS values.
T = Trace of Precipitation, MM = Missing Value Source: NWS Daily Summary

Daily Weather History Graph

Daily Weather History Graph

Search for Another Location

Airport or City:

Trip Planner

Search our weather history database for the weather conditions in past years. The results will help you decide how hot, cold, wet, or windy it might be!

Date:

Astronomy

May. 07, 2014 Rise Set
Actual Time 6:01 AM EDT 7:58 PM EDT
Civil Twilight 5:32 AM EDT 8:27 PM EDT
Nautical Twilight 4:57 AM EDT 9:02 PM EDT
Astronomical Twilight 4:20 AM EDT 9:40 PM EDT
Moon 1:09 PM EDT (5/7) 1:50 AM EDT (5/7)
Length of Visible Light 14h 55m
Length of Day
13h 57m
First Quarter, 55% of the Moon is Illuminated
May 7
First Quarter
May 14
Full
May 21
Last Quarter
May 28
New
Jun 5
First Quarter

Hourly Weather History & Observations

Time (EDT) Temp. Windchill Dew Point Humidity Pressure Visibility Wind Dir Wind Speed Gust Speed Precip Events Conditions
12:15 AM 51.8 °F - 50.0 °F 94% 30.06 in 7.0 mi SSE 3.5 mph - N/A   Clear
12:35 AM 51.8 °F - 50.0 °F 94% 30.06 in 5.0 mi SE 3.5 mph - N/A   Clear
12:55 AM 51.8 °F - 50.0 °F 94% 30.07 in 7.0 mi SSE 3.5 mph - N/A   Clear
1:15 AM 51.8 °F - 50.0 °F 94% 30.07 in 7.0 mi Calm Calm - N/A   Clear
1:35 AM 51.8 °F - 50.0 °F 94% 30.07 in 1.2 mi Calm Calm - N/A   Mist
1:55 AM 50.0 °F - 48.2 °F 94% 30.07 in 7.0 mi Calm Calm - N/A   Clear
2:15 AM 50.0 °F - 46.4 °F 87% 30.07 in 4.0 mi Calm Calm - N/A   Scattered Clouds
2:35 AM 50.0 °F - 46.4 °F 87% 30.07 in 5.0 mi SE 3.5 mph - N/A   Clear
2:55 AM 48.2 °F - 46.4 °F 93% 30.07 in 7.0 mi SSE 3.5 mph - N/A   Clear
3:15 AM 48.2 °F - 46.4 °F 93% 30.07 in 5.0 mi SSE 3.5 mph - N/A   Clear
3:35 AM 46.4 °F 45.2 °F 44.6 °F 93% 30.08 in 10.0 mi SSE 3.5 mph - N/A   Clear
3:55 AM 48.2 °F - 46.4 °F 93% 30.08 in 2.5 mi Calm Calm - N/A   Scattered Clouds
4:15 AM 48.2 °F - 46.4 °F 93% 30.10 in 10.0 mi South 3.5 mph - N/A   Mostly Cloudy
4:35 AM 48.2 °F - 46.4 °F 93% 30.10 in 10.0 mi South 3.5 mph - N/A   Mostly Cloudy
4:55 AM 50.0 °F - 46.4 °F 87% 30.11 in 10.0 mi Calm Calm - N/A   Overcast
5:15 AM 50.0 °F - 46.4 °F 87% 30.11 in 10.0 mi Calm Calm - N/A   Overcast
5:55 AM 50.0 °F - 48.2 °F 94% 30.13 in 7.0 mi NNE 4.6 mph - N/A   Overcast
5:58 AM 51.8 °F - 50.0 °F 94% 30.14 in 7.0 mi Calm Calm - N/A   Overcast
6:15 AM 51.8 °F - 50.0 °F 94% 30.15 in 7.0 mi Calm Calm - N/A   Overcast
6:40 AM 51.8 °F - 50.0 °F 94% 30.16 in 7.0 mi Calm Calm - N/A   Overcast
7:35 AM 55.4 °F - 51.8 °F 88% 30.17 in 7.0 mi Calm Calm - N/A   Scattered Clouds
8:00 AM 57.2 °F - 53.6 °F 88% 30.17 in 10.0 mi Calm Calm - N/A   Scattered Clouds
8:10 AM 57.2 °F - 53.6 °F 88% 30.17 in 10.0 mi Calm Calm - N/A   Clear
8:40 AM 59.0 °F - 53.6 °F 82% 30.18 in 10.0 mi Calm Calm - N/A   Clear
9:00 AM 60.8 °F - 53.6 °F 77% 30.19 in 10.0 mi Calm Calm - N/A   Scattered Clouds
9:15 AM 60.8 °F - 51.8 °F 72% 30.20 in 10.0 mi Calm Calm - N/A   Mostly Cloudy
9:35 AM 62.6 °F - 51.8 °F 68% 30.20 in 10.0 mi Calm Calm - N/A   Overcast
9:55 AM 62.6 °F - 50.0 °F 63% 30.20 in 10.0 mi Calm Calm - N/A   Mostly Cloudy
10:10 AM 64.4 °F - 50.0 °F 59% 30.20 in 10.0 mi Calm Calm - N/A   Scattered Clouds
10:35 AM 64.4 °F - 44.6 °F 49% 30.20 in 10.0 mi SE 4.6 mph - N/A   Overcast
10:55 AM 66.2 °F - 46.4 °F 49% 30.20 in 10.0 mi South 5.8 mph - N/A   Overcast
11:15 AM 68.0 °F - 42.8 °F 40% 30.21 in 10.0 mi Calm Calm - N/A   Overcast
11:30 AM 66.2 °F - 46.4 °F 49% 30.22 in 10.0 mi SE 3.5 mph - N/A   Overcast
11:55 AM 68.0 °F - 46.4 °F 46% 30.22 in 10.0 mi East 5.8 mph - N/A   Overcast
12:15 PM 66.2 °F - 48.2 °F 52% 30.22 in 10.0 mi East 6.9 mph - N/A   Overcast
12:35 PM 66.2 °F - 46.4 °F 49% 30.22 in 10.0 mi East 5.8 mph - N/A   Overcast
12:55 PM 66.2 °F - 46.4 °F 49% 30.22 in 10.0 mi ESE 4.6 mph - N/A   Overcast
1:15 PM 68.0 °F - 50.0 °F 52% 30.21 in 10.0 mi East 9.2 mph - N/A   Overcast
1:35 PM 64.4 °F - 46.4 °F 52% 30.22 in 10.0 mi ESE 4.6 mph - N/A   Overcast
2:00 PM 64.4 °F - 51.8 °F 64% 30.22 in 10.0 mi East 9.2 mph - N/A   Mostly Cloudy
2:20 PM 64.4 °F - 50.0 °F 59% 30.24 in 10.0 mi East 5.8 mph - N/A Thunderstorm Mostly Cloudy
2:35 PM 62.6 °F - 51.8 °F 68% 30.24 in 10.0 mi ENE 10.4 mph - N/A Thunderstorm Overcast
2:55 PM 60.8 °F - 51.8 °F 72% 30.24 in 10.0 mi ENE 12.7 mph - N/A   Overcast
3:10 PM 60.8 °F - 51.8 °F 72% 30.23 in 10.0 mi East 10.4 mph - N/A   Overcast
3:35 PM 60.8 °F - 51.8 °F 72% 30.20 in 10.0 mi East 10.4 mph 16.1 mph N/A   Mostly Cloudy
3:55 PM 60.8 °F - 50.0 °F 68% 30.18 in 10.0 mi ESE 10.4 mph - N/A   Clear
4:15 PM 60.8 °F - 50.0 °F 68% 30.19 in 10.0 mi ESE 8.1 mph - N/A   Clear
4:35 PM 62.6 °F - 51.8 °F 68% 30.17 in 10.0 mi SE 10.4 mph - N/A   Clear
5:00 PM 62.6 °F - 50.0 °F 63% 30.18 in 10.0 mi ESE 6.9 mph - N/A   Clear
5:15 PM 62.6 °F - 50.0 °F 63% 30.17 in 10.0 mi ESE 5.8 mph - N/A   Clear
5:35 PM 62.6 °F - 50.0 °F 63% 30.17 in 10.0 mi ESE 6.9 mph - N/A   Clear
6:00 PM 62.6 °F - 48.2 °F 59% 30.16 in 10.0 mi ESE 6.9 mph - N/A   Clear
6:20 PM 60.8 °F - 48.2 °F 63% 30.17 in 10.0 mi ESE 6.9 mph - N/A   Clear
6:40 PM 60.8 °F - 46.4 °F 59% 30.17 in 10.0 mi ESE 8.1 mph - N/A   Mostly Cloudy
6:50 PM 60.8 °F - 48.2 °F 63% 30.18 in 10.0 mi East 4.6 mph - N/A   Mostly Cloudy
7:20 PM 59.0 °F - 48.2 °F 67% 30.17 in 10.0 mi ESE 6.9 mph - N/A   Overcast
7:40 PM 59.0 °F - 46.4 °F 63% 30.17 in 10.0 mi ESE 6.9 mph - N/A   Overcast
7:55 PM 59.0 °F - 44.6 °F 59% 30.17 in 10.0 mi ESE 6.9 mph - N/A   Overcast
8:15 PM 59.0 °F - 44.6 °F 59% 30.17 in 10.0 mi SE 8.1 mph - N/A   Overcast
8:30 PM 59.0 °F - 44.6 °F 59% 30.17 in 10.0 mi SE 9.2 mph - N/A   Overcast
9:00 PM 59.0 °F - 46.4 °F 63% 30.17 in 10.0 mi SE 8.1 mph - N/A   Overcast
9:15 PM 59.0 °F - 46.4 °F 63% 30.17 in 10.0 mi SE 5.8 mph - N/A   Overcast
9:55 PM 59.0 °F - 48.2 °F 67% 30.18 in 10.0 mi ESE 6.9 mph - N/A   Overcast
10:20 PM 59.0 °F - 50.0 °F 72% 30.19 in 10.0 mi SE 6.9 mph - N/A   Overcast
10:35 PM 59.0 °F - 50.0 °F 72% 30.18 in 10.0 mi SE 8.1 mph - N/A   Overcast
10:58 PM 60.8 °F - 51.8 °F 72% 30.18 in 10.0 mi ESE 5.8 mph - N/A   Overcast
11:15 PM 59.0 °F - 51.8 °F 77% 30.18 in 10.0 mi ESE 6.9 mph - N/A   Overcast
11:55 PM 59.0 °F - 51.8 °F 77% 30.17 in 10.0 mi SE 5.8 mph - N/A   Overcast
11:58 PM 60.8 °F - 51.8 °F 72% 30.17 in 10.0 mi ESE 5.8 mph - N/A   Overcast